Broomfield, CO

1:34 PM MDT on March 29, 2017 (GMT -0600)
Jeffco

Weather History for KBJC - May, 2013

Change the Weather History Date:

Thursday, May 2, 2013

  Actual Average Record
Temperature  
Mean Temperature 30 °F -  
Max Temperature 42 °F 63 °F 80 °F (1986)
Min Temperature 19 °F 41 °F 16 °F (1987)
Degree Days  
Heating Degree Days 34    
Moisture  
Dew Point 18 °F    
Average Humidity 66    
Maximum Humidity 93    
Minimum Humidity 29    
Precipitation  
Precipitation 0.00 in - - ()
Sea Level Pressure  
Sea Level Pressure 30.57 in    
Wind  
Wind Speed 5 mph (WNW)    
Max Wind Speed 10 mph    
Max Gust Speed -    
Visibility 10 miles    
Events Snow    
Averages and records for this station are not official NWS values.
T = Trace of Precipitation, MM = Missing Value Source: NWS Daily Summary

Daily Weather History Graph

Daily Weather History Graph

Search for Another Location

Airport or City:

Trip Planner

Search our weather history database for the weather conditions in past years. The results will help you decide how hot, cold, wet, or windy it might be!

Date:

Astronomy

May. 02, 2013 Rise Set
Actual Time 5:59 AM MDT 7:56 PM MDT
Civil Twilight 5:29 AM MDT 8:25 PM MDT
Nautical Twilight 4:53 AM MDT 9:01 PM MDT
Astronomical Twilight 4:15 AM MDT 9:40 PM MDT
Moon 1:47 AM MDT (5/2) 12:49 PM MDT (5/2)
Length of Visible Light 14h 56m
Length of Day
13h 57m
Waning Gibbous, 47% of the Moon is Illuminated
May 2
Waning Gibbous
May 9
New
May 17
First Quarter
May 24
Full
May 31
Last Quarter

Hourly Weather History & Observations

Time (MDT) Temp. Windchill Dew Point Humidity Pressure Visibility Wind Dir Wind Speed Gust Speed Precip Events Conditions
12:14 AM 24.8 °F 16.1 °F 21.2 °F 86% 30.60 in 7.0 mi NW 8.1 mph - N/A Snow Light Snow
12:35 AM 24.8 °F 16.9 °F 21.2 °F 86% 30.60 in 10.0 mi WNW 6.9 mph - N/A Snow Light Snow
12:55 AM 23.0 °F 15.8 °F 21.2 °F 93% 30.60 in 7.0 mi WNW 5.8 mph - N/A Snow Light Snow
1:15 AM 23.0 °F 14.7 °F 21.2 °F 93% 30.60 in 10.0 mi WNW 6.9 mph - N/A   Overcast
1:35 AM 23.0 °F 17.0 °F 19.4 °F 86% 30.61 in 10.0 mi West 4.6 mph - N/A   Overcast
1:55 AM 24.8 °F - 21.2 °F 86% 30.60 in 5.0 mi Calm Calm - N/A Snow Light Snow
2:15 AM 26.6 °F 19.1 °F 21.2 °F 80% 30.60 in 10.0 mi NW 6.9 mph - N/A Snow Light Snow
2:35 AM 26.6 °F 20.0 °F 21.2 °F 80% 30.60 in 10.0 mi West 5.8 mph - N/A   Overcast
2:55 AM 23.0 °F 14.7 °F 19.4 °F 86% 30.60 in 10.0 mi West 6.9 mph - N/A   Overcast
3:15 AM 21.2 °F 14.9 °F 15.8 °F 80% 30.60 in 10.0 mi WSW 4.6 mph - N/A   Scattered Clouds
3:35 AM 21.2 °F 13.6 °F 17.6 °F 86% 30.60 in 10.0 mi West 5.8 mph - N/A   Clear
3:55 AM 19.4 °F 9.5 °F 14.0 °F 80% 30.60 in 10.0 mi West 8.1 mph - N/A   Clear
4:15 AM 19.4 °F 7.9 °F 14.0 °F 80% 30.61 in 10.0 mi West 10.4 mph - N/A   Scattered Clouds
4:35 AM 21.2 °F 11.7 °F 14.0 °F 74% 30.61 in 10.0 mi West 8.1 mph - N/A   Mostly Cloudy
4:54 AM 19.4 °F 10.4 °F 14.0 °F 80% 30.60 in 10.0 mi West 6.9 mph - N/A   Scattered Clouds
5:14 AM 21.2 °F 12.6 °F 14.0 °F 74% 30.61 in 10.0 mi West 6.9 mph - N/A   Clear
5:35 AM 23.0 °F 15.8 °F 15.8 °F 74% 30.61 in 10.0 mi West 5.8 mph - N/A   Mostly Cloudy
5:47 AM 24.8 °F 19.1 °F 15.8 °F 69% 30.61 in 40.0 mi WSW 4.6 mph - N/A   Mostly Cloudy
5:55 AM 24.8 °F - 14.0 °F 64% 30.62 in 10.0 mi Calm Calm - N/A   Scattered Clouds
6:50 AM 23.0 °F - 14.0 °F 68% 30.64 in 50.0 mi Calm Calm - N/A   Mostly Cloudy
7:50 AM 26.6 °F 16.8 °F 15.8 °F 64% 30.65 in 50.0 mi WNW 10.4 mph - N/A   Mostly Cloudy
8:47 AM 28.4 °F - 17.6 °F 64% 30.65 in 50.0 mi Calm Calm - N/A   Scattered Clouds
9:47 AM 30.2 °F - 19.4 °F 64% 30.65 in 50.0 mi Calm Calm - N/A   Scattered Clouds
10:47 AM 33.8 °F - 17.6 °F 52% 30.65 in 50.0 mi Calm Calm - N/A   Partly Cloudy
11:55 AM 35.6 °F - 19.4 °F 52% 30.62 in 50.0 mi Calm Calm - N/A   Partly Cloudy
12:49 PM 37.4 °F 34.9 °F 19.4 °F 48% 30.61 in 50.0 mi WSW 3.5 mph - N/A   Scattered Clouds
1:50 PM 39.2 °F 37.0 °F 14.0 °F 36% 30.60 in 50.0 mi NNE 3.5 mph - N/A   Scattered Clouds
2:46 PM 41.0 °F 37.1 °F 17.6 °F 39% 30.57 in 50.0 mi NNW 5.8 mph - N/A   Scattered Clouds
3:47 PM 41.0 °F - 10.4 °F 29% 30.53 in 50.0 mi Calm Calm - N/A   Partly Cloudy
4:53 PM 42.8 °F 39.3 °F 15.8 °F 34% 30.51 in 50.0 mi NW 5.8 mph - N/A   Partly Cloudy
5:47 PM 42.8 °F - 15.8 °F 34% 30.49 in 40.0 mi Calm Calm - N/A   Partly Cloudy
6:48 PM 41.0 °F - 12.2 °F 31% 30.48 in 40.0 mi Calm Calm - N/A   Partly Cloudy
7:47 PM 39.2 °F 37.0 °F 19.4 °F 45% 30.47 in 40.0 mi Variable 3.5 mph - N/A   Partly Cloudy
8:56 PM 33.8 °F 30.8 °F 21.2 °F 60% 30.46 in 40.0 mi Variable 3.5 mph - N/A   Partly Cloudy
9:52 PM 35.6 °F - 21.2 °F 56% 30.45 in 40.0 mi Calm Calm - N/A   Partly Cloudy
11:15 PM 35.6 °F - 23.0 °F 60% 30.42 in 10.0 mi Calm Calm - N/A   Clear
11:35 PM 35.6 °F - 23.0 °F 60% 30.42 in 10.0 mi Calm Calm - N/A   Clear
11:55 PM 35.6 °F - 23.0 °F 60% 30.41 in 10.0 mi Calm Calm - N/A   Clear